TimeEST,TemperatureF,Dew PointF,Humidity,Sea Level PressureIn,VisibilityMPH,Wind Direction,Wind SpeedMPH,Gust SpeedMPH,PrecipitationIn,Events,Conditions,WindDirDegrees,DateUTC
12:53 AM,34.0,24.1,67,29.90,9.0,WSW,15.0,25.3,0.00,,Overcast,250,2013-01-17 05:53:00
1:53 AM,34.0,25.0,70,29.93,5.0,WSW,12.7,23.0,0.00,Snow,Light Snow,250,2013-01-17 06:53:00
2:21 AM,33.8,24.8,70,29.90,10.0,WSW,17.3,24.2,0.00,,Overcast,240,2013-01-17 07:21:00
2:53 AM,33.8,24.8,70,29.91,10.0,West,16.1,20.7,N/A,,Overcast,260,2013-01-17 07:53:00
3:53 AM,34.0,25.0,70,29.97,10.0,West,15.0,20.7,N/A,,Overcast,260,2013-01-17 08:53:00
4:24 AM,33.8,24.8,70,29.93,10.0,West,16.1,-,N/A,,Overcast,270,2013-01-17 09:24:00
4:32 AM,33.8,24.8,70,29.94,10.0,West,16.1,-,N/A,,Overcast,260,2013-01-17 09:32:00
4:53 AM,34.0,26.1,73,29.99,10.0,West,17.3,24.2,N/A,,Overcast,260,2013-01-17 09:53:00
5:31 AM,32.0,24.8,75,29.97,10.0,NNW,16.1,26.5,N/A,,Overcast,330,2013-01-17 10:31:00
5:53 AM,32.0,21.9,66,30.02,10.0,NW,15.0,23.0,0.00,,Overcast,320,2013-01-17 10:53:00
6:53 AM,28.0,18.0,66,30.08,10.0,NNW,18.4,27.6,N/A,,Overcast,340,2013-01-17 11:53:00
6:58 AM,26.6,17.6,69,30.04,10.0,NNW,12.7,24.2,0.00,Snow,Light Snow,340,2013-01-17 11:58:00
7:45 AM,24.8,15.8,69,30.07,10.0,NNW,15.0,-,0.00,,Overcast,340,2013-01-17 12:45:00
7:53 AM,25.0,16.0,69,30.13,10.0,NNW,12.7,21.9,0.00,,Overcast,340,2013-01-17 12:53:00
8:46 AM,24.8,15.8,69,30.10,10.0,North,8.1,-,N/A,,Overcast,350,2013-01-17 13:46:00
8:53 AM,26.1,16.0,66,30.16,10.0,North,9.2,-,N/A,,Overcast,350,2013-01-17 13:53:00
9:06 AM,24.8,15.8,69,30.12,10.0,North,9.2,-,0.00,Snow,Light Snow,10,2013-01-17 14:06:00
9:53 AM,24.1,14.0,65,30.19,10.0,North,8.1,-,0.00,Snow,Light Snow,360,2013-01-17 14:53:00
10:11 AM,24.8,12.2,59,30.15,10.0,North,9.2,-,0.00,Snow,Light Snow,10,2013-01-17 15:11:00
10:53 AM,24.1,14.0,65,30.21,10.0,NNE,6.9,-,0.00,Snow,Light Snow,30,2013-01-17 15:53:00
11:03 AM,24.8,14.0,64,30.16,10.0,North,9.2,-,0.00,Snow,Light Snow,10,2013-01-17 16:03:00
11:53 AM,23.0,12.9,65,30.21,8.0,NNE,8.1,-,0.00,Snow,Light Snow,30,2013-01-17 16:53:00
12:43 PM,21.2,12.2,68,30.14,6.0,NNE,8.1,-,0.00,Snow,Light Snow,30,2013-01-17 17:43:00
12:53 PM,21.9,12.9,68,30.19,7.0,NNE,9.2,-,0.00,Snow,Light Snow,30,2013-01-17 17:53:00
1:53 PM,21.9,12.9,68,30.18,10.0,NNE,10.4,-,0.00,Snow,Light Snow,30,2013-01-17 18:53:00
2:53 PM,21.9,12.0,66,30.18,10.0,NE,10.4,-,0.00,Snow,Light Snow,40,2013-01-17 19:53:00
3:53 PM,21.0,10.9,65,30.17,10.0,ENE,10.4,-,0.00,Snow,Light Snow,60,2013-01-17 20:53:00
4:53 PM,21.0,12.0,68,30.20,10.0,ENE,11.5,-,0.00,Snow,Light Snow,70,2013-01-17 21:53:00
5:53 PM,19.9,12.0,71,30.18,10.0,East,10.4,-,0.00,Snow,Light Snow,100,2013-01-17 22:53:00
6:53 PM,19.9,12.0,71,30.20,10.0,East,8.1,-,0.00,Snow,Light Snow,90,2013-01-17 23:53:00
7:31 PM,19.4,12.2,74,30.16,3.0,ENE,10.4,-,0.00,Snow,Light Snow,70,2013-01-18 00:31:00
7:43 PM,19.4,14.0,80,30.16,2.0,ENE,10.4,-,0.00,Snow,Light Snow,60,2013-01-18 00:43:00
7:53 PM,19.0,14.0,81,30.22,2.0,ENE,11.5,-,0.00,Snow,Light Snow,70,2013-01-18 00:53:00
8:08 PM,19.4,14.0,80,30.15,2.5,ENE,10.4,-,0.00,Snow,Light Snow,70,2013-01-18 01:08:00
8:25 PM,19.4,14.0,80,30.14,5.0,NE,11.5,-,0.00,Snow,Light Snow,50,2013-01-18 01:25:00
8:53 PM,19.0,12.9,77,30.20,4.0,ENE,12.7,-,0.00,Snow,Light Snow,60,2013-01-18 01:53:00
9:21 PM,17.6,12.2,79,30.16,2.0,NE,6.9,-,0.00,Snow,Light Snow,40,2013-01-18 02:21:00
9:53 PM,18.0,14.0,84,30.20,2.0,NE,10.4,-,0.00,Snow,Light Snow,40,2013-01-18 02:53:00
10:09 PM,17.6,14.0,86,30.16,1.8,NE,12.7,-,0.00,Snow,Light Snow,50,2013-01-18 03:09:00
10:23 PM,17.6,12.2,79,30.16,3.0,NE,11.5,-,0.00,Snow,Light Snow,40,2013-01-18 03:23:00
10:53 PM,17.1,12.0,81,30.21,4.0,NE,8.1,-,0.00,Snow,Light Snow,50,2013-01-18 03:53:00
11:02 PM,15.8,12.2,86,30.15,4.0,NE,9.2,-,0.00,Snow,Light Snow,50,2013-01-18 04:02:00
11:30 PM,15.8,10.4,79,30.15,7.0,NE,5.8,-,0.00,,Overcast,50,2013-01-18 04:30:00
11:37 PM,15.8,10.4,79,30.15,10.0,NE,9.2,-,0.00,,Overcast,50,2013-01-18 04:37:00
11:53 PM,15.1,10.9,84,30.23,10.0,NNE,3.5,-,0.00,,Mostly Cloudy,30,2013-01-18 04:53:00